Regional Weather Roundup
Issued by NWS Goodland, KS

Home | Current Version | Previous Version | Graphics & Text | Print | Product List | Glossary On
Versions: 1 2 3 4 5 6 7 8 9 10 11 12 13 14 15 16 17 18 19 20 21 22 23 24 25 26 27 28 29 30 31 32 33 34 35 36 37 38 39 40 41 42 43 44 45 46 47 48 49 50
000
ASUS43 KGLD 302259
RWRGLD

GOODLAND FORECAST AREA HOURLY WEATHER ROUNDUP
NATIONAL WEATHER SERVICE GOODLAND KS
500 PM MDT TUE SEP 30 2014

...OFFICIAL OBSERVATIONS...

CITY           SKY/WX    TMP DP  RH WIND       PRES   REMARKS
GOODLAND KS    SUNNY     72  39  30 SW3       29.77S
HILL CITY KS   MOSUNNY   79  55  43 E6        29.71S
IMPERIAL NEB   SUNNY     74  38  27 S14       29.73S
MCCOOK NEB     MOSUNNY   78  38  23 S6        29.72S
AKRON CO       MOSUNNY   66  34  30 W6        29.80S
BURLINGTON CO  SUNNY     71  37  28 S6        29.77F
LIMON CO       CLOUDY    64  33  31 N10       29.83R
$$

...UNOFFICIAL OBSERVATIONS...

CITY           SKY/WX    TMP DP  RH WIND       PRES   REMARKS
COLBY KS       SUNNY     75  46  35 SE10      29.75S
GOVE KS          N/A     76  32  20 MISG        N/A
NORTON KS      SUNNY     79  43  27 SE6       29.70F
SHARON SPRINGS   N/A     75  43  31 W5          N/A
WAKEENEY KS      N/A     78  48  34 MISG        N/A
TRENTON NEB      N/A     80  32  17 S7          N/A
KIT CARSON CO    N/A     71  40  32 MISG        N/A
YUMA CO          N/A     70  41  34 CALM        N/A
$$


USA.gov is the U.S. government's official web portal to all federal, state and local government web resources and services.